{"data":{"norad_id":65412,"intl_designator":"2025-192J","name":"STARLINK-34992","alt_names":[],"object_type":"PAYLOAD","status":"ACTIVE","operator":null,"country":"US","launch_date":"2025-08-31","launch_site_code":"AFETR","launch_vehicle":null,"mission":null,"orbit_class":"UNKNOWN","rcs_meters":null,"size_class":null,"mass_kg":null,"dimensions":null,"purposes":["comms"],"wikipedia_slug":null,"has_3d_model":false,"image_url":null,"decayed_at":null,"tle_current":{"epoch":"2026-09-20T13:19:48.660384Z","epoch_age_seconds":110156,"freshness":"FRESH","line1":"1 65412U 25192J   26263.55542431  .00014861  00000+0  48938-3 0  9999","line2":"2 65412  53.1583  45.4707 0001464  79.3204 280.7962 15.31720477 59221","mean_motion":15.31720477,"eccentricity":0.0001464,"inclination_deg":53.1583,"raan_deg":45.4707,"arg_perigee_deg":79.3204,"mean_anomaly_deg":280.7962,"bstar":0.00048938,"rev_number":5922,"period_min":94.011931133829,"perigee_km":469.67628837839,"apogee_km":471.68162169003,"semimajor_km":6848.8159550342,"source":"CELESTRAK","updated_at":"2026-09-21T09:00:35.603897Z"}}}